Regional Weather Roundup
Issued by NWS Albany, NY

Home | Current Version | Previous Version | Text Only | Print | Product List | Glossary On
Versions: 1 2 3 4 5 6 7 8 9 10 11 12 13 14 15 16 17 18 19 20 21 22 23 24 25 26 27 28 29 30 31 32 33 34 35 36 37 38 39 40 41 42 43 44 45 46 47 48 49 50
000
ASUS41 KALY 211910
RWRALY

NEW YORK STATE HOURLY WEATHER ROUNDUP
NATIONAL WEATHER SERVICE ALBANY NY
200 PM EST SUN JAN 21 2018

NOTE: "FAIR" INDICATES FEW OR NO CLOUDS BELOW 12,000 FEET WITH NO
SIGNIFICANT WEATHER AND/OR NO OBSTRUCTIONS TO VISIBILITY.

NYZ032-033-038>043-046>054-057>066-NYZ062>081-082-084-212000-
EAST


CITY           SKY/WX    TMP DP  RH WIND       PRES   REMARKS
ALBANY         CLOUDY    41  28  60 W6        30.16S
GLENS FALLS    CLOUDY    40  30  67 S12       30.11S WCI  33
POUGHKEEPSIE   FAIR      45  28  51 CALM      30.13F
NEWBURGH       PTSUNNY   46  32  57 CALM      30.14F
MONTGOMERY     FAIR      46  30  53 E3        30.11F
WHITE PLAINS   FAIR      45  29  53 NW9       30.12F
ISLIP          CLOUDY    51  29  42 CALM      30.13S
NEW YORK CITY  PTSUNNY   50  29  44 NW5       30.13F
CENTRAL PARK   FAIR      49  29  46 VRB3      30.15F
$$

NYZ005>009-017-018-044>046-055-056-212000-
CENTRAL


CITY           SKY/WX    TMP DP  RH WIND       PRES   REMARKS
FULTON         FAIR      42  30  62 SW6       30.10F
SYRACUSE       CLOUDY    40  32  73 E6        30.10F
ROME           PTSUNNY   38  31  76 SE3       30.14F
ELMIRA         CLOUDY    39  33  79 CALM      30.09F
BINGHAMTON     CLOUDY    37  29  72 SW3       30.08F
MONTICELLO     FAIR      41  28  60 NW3       30.11F
$$

NYZ026>034-041>043-087-212000-
NORTH


CITY           SKY/WX    TMP DP  RH WIND       PRES   REMARKS
WATERTOWN      FAIR      39  32  76 SW7       30.10F HAZE    WCI  34
FORT DRUM      NOT AVBL
OGDENSBURG     FAIR      41  33  73 SW6       30.10S
MASSENA        CLOUDY    36  28  73 NE6       30.12F WCI  31
SARANAC LAKE   PTSUNNY   36  29  75 SW6       30.02F WCI  31
PLATTSBURGH    FAIR      34  23  64 N5        30.12S WCI  30
$$

NYZ001>004-010>016-019>021-085-212000-
WEST


CITY           SKY/WX    TMP DP  RH WIND       PRES   REMARKS
NIAGARA FALLS  CLOUDY    41  35  79 SW8       30.06R HAZE
BUFFALO        CLOUDY    40  36  86 SW6       30.06F
DUNKIRK        CLOUDY    56  37  49 S3        30.05F
JAMESTOWN      CLOUDY    39  36  89 S7        30.03F WCI  34
WELLSVILLE     CLOUDY    40  36  86 S5        30.05F
ROCHESTER      CLOUDY    45  34  65 CALM      30.08F
PENN YAN       CLOUDY    41  31  67 S6        30.08F
$$

             KEY
       WCI = WIND CHILL INDEX
       VSB = VISIBILITY
       HX  = HEAT INDEX
$$



USA.gov is the U.S. government's official web portal to all federal, state and local government web resources and services.